GW4609 Weather Reports


time (UTC)temp
F
wind
direction
speed
knots
gust
knots
rain 1hr
in
rain 24hr
in
rain mn
in
humidity
%
barometer
mb
20260509201402 63 76 0.9 2.6 0.00 0.00 0.00 70 1006.8
20260509200859 63 93 0.9 2.6 0.00 0.00 0.00 71 1006.4
20260509200359 63 83 3.5 3.5 0.00 0.00 0.00 70 1006.4
20260509195856 63 75 0.9 2.6 0.00 0.00 0.00 70 1006.4
20260509195356 63 85 0.9 1.7 0.00 0.00 0.00 71 1006.5
20260509194851 63 93 0.9 1.7 0.00 0.00 0.00 70 1006.5
20260509194348 62 71 2.6 2.6 0.00 0.00 0.00 71 1006.5
20260509193844 62 121 2.6 3.5 0.00 0.00 0.00 70 1006.5
20260509193343 62 84 3.5 6.1 0.00 0.00 0.00 69 1006.4
20260509192840 63 86 5.2 6.1 0.00 0.00 0.00 69 1006.7
20260509192336 64 80 3.5 5.2 0.00 0.00 0.00 68 1006.6
20260509191831 65 87 2.6 3.5 0.00 0.00 0.00 63 1006.7
20260509191327 66 76 0.0 0.9 0.00 0.00 0.00 55 1006.6
20260509190823 66 84 0.9 1.7 0.00 0.00 0.00 56 1006.7
20260509190321 66 60 0.9 1.7 0.00 0.00 0.00 59 1006.6
20260509185818 66 236 0.0 0.9 0.00 0.00 0.00 58 1006.4
20260509185314 65 34 0.0 2.6 0.00 0.00 0.00 63 1006.6
20260509184812 66 68 3.5 5.2 0.00 0.00 0.00 63 1006.5
20260509184309 67 104 0.9 0.9 0.00 0.00 0.00 51 1006.6
20260509183805 67 19 0.0 0.0 0.00 0.00 0.00 50 1006.6
20260509183301 65 92 0.0 1.7 0.00 0.00 0.00 57 1006.8
20260509182756 66 79 0.9 1.7 0.00 0.00 0.00 56 1006.7
20260509182254 65 36 0.0 1.7 0.00 0.00 0.00 58 1006.8
20260509181751 65 72 0.9 1.7 0.00 0.00 0.00 59 1007.2
20260509181249 64 94 0.9 0.9 0.00 0.00 0.00 60 1007.0
20260509180745 64 89 0.0 0.9 0.00 0.00 0.00 58 1007.1
20260509180242 64 84 0.9 1.7 0.00 0.00 0.00 58 1007.0
20260509175738 64 95 0.9 0.9 0.00 0.00 0.00 60 1007.1
20260509175235 64 73 0.9 0.9 0.00 0.00 0.00 60 1007.1
20260509174731 64 65 1.7 1.7 0.00 0.00 0.00 60 1007.2
20260509174226 64 76 0.9 1.7 0.00 0.00 0.00 61 1007.0
20260509173722 63 83 1.7 1.7 0.00 0.00 0.00 62 1007.2
20260509173218 62 78 0.9 1.7 0.00 0.00 0.00 62 1007.1
20260509172714 63 70 1.7 1.7 0.00 0.00 0.00 63 1007.4
20260509172211 63 66 0.9 0.9 0.00 0.00 0.00 62 1007.4
20260509171707 62 74 0.9 1.7 0.00 0.00 0.00 63 1007.6
20260509171203 62 84 0.0 1.7 0.00 0.00 0.00 64 1007.8
20260509170700 62 57 0.9 0.9 0.00 0.00 0.00 64 1007.6
20260509170156 61 87 1.7 2.6 0.00 0.00 0.00 66 1007.6
20260509165654 61 83 0.0 1.7 0.00 0.00 0.00 69 1007.8
20260509165150 61 84 0.0 1.7 0.00 0.00 0.00 67 1007.9
20260509164646 61 90 0.0 0.0 0.00 0.00 0.00 71 1007.8
20260509164142 60 91 1.7 1.7 0.00 0.00 0.00 72 1007.9
20260509163640 60 82 0.0 0.9 0.00 0.00 0.00 70 1007.8
20260509163135 60 82 1.7 1.7 0.00 0.00 0.00 71 1008.0
20260509162633 60 83 1.7 1.7 0.00 0.00 0.00 70 1007.9
20260509162128 60 85 0.9 1.7 0.00 0.00 0.00 72 1008.0
20260509161625 59 85 0.0 0.9 0.00 0.00 0.00 70 1008.3
20260509161120 59 85 0.9 1.7 0.00 0.00 0.00 75 1008.2
20260509160616 60 102 0.9 1.7 0.00 0.00 0.00 73 1008.4
20260509160111 60 323 0.0 0.9 0.00 0.00 0.00 73 1008.3
20260509155608 60 74 0.0 0.9 0.00 0.00 0.00 73 1008.7
20260509155104 60 51 0.9 1.7 0.00 0.00 0.00 74 1008.3
20260509154600 60 272 0.0 0.9 0.00 0.00 0.00 73 1008.4
20260509154058 60 67 1.7 1.7 0.00 0.00 0.00 74 1008.4
20260509153555 60 63 0.9 1.7 0.00 0.00 0.00 73 1008.6
20260509153051 60 40 0.9 0.9 0.00 0.00 0.00 72 1008.5
20260509152547 60 55 0.0 0.9 0.00 0.00 0.00 73 1008.4
20260509152045 60 85 0.0 0.9 0.00 0.00 0.00 72 1008.5
20260509151541 60 85 0.0 0.0 0.00 0.00 0.00 71 1008.4
20260509151039 59 85 0.0 0.9 0.00 0.00 0.00 74 1008.5
20260509150536 59 85 0.0 0.9 0.00 0.00 0.00 74 1008.6
20260509150035 58 85 0.9 1.7 0.00 0.00 0.00 75 1008.3
20260509145530 59 59 0.0 1.7 0.00 0.00 0.00 75 1008.6
20260509145025 58 295 0.0 1.7 0.00 0.00 0.00 76 1008.6
20260509144522 58 89 2.6 2.6 0.00 0.00 0.00 76 1008.6
20260509144019 58 102 0.0 1.7 0.00 0.00 0.00 76 1008.7
20260509143516 58 78 1.7 2.6 0.00 0.00 0.00 77 1008.7
20260509143014 58 53 0.0 0.9 0.00 0.00 0.00 79 1008.4
20260509142509 57 81 0.0 0.9 0.00 0.00 0.00 80 1008.5
20260509142005 56 80 0.9 0.9 0.00 0.00 0.00 82 1008.5
20260509141502 56 64 0.0 1.7 0.00 0.00 0.00 83 1008.6
20260509140959 56 81 0.9 1.7 0.00 0.00 0.00 83 1008.7
20260509140455 55 285 0.0 0.9 0.00 0.00 0.00 84 1008.7
20260509135953 55 6 0.0 0.9 0.00 0.00 0.00 86 1008.7
20260509135450 54 70 0.9 0.9 0.00 0.00 0.00 86 1008.7
20260509134947 54 96 1.7 1.7 0.00 0.00 0.00 86 1008.8
20260509134445 55 75 0.9 0.9 0.00 0.00 0.00 87 1008.9
20260509133942 55 67 0.0 0.0 0.00 0.00 0.00 84 1009.0
20260509133439 54 301 0.9 0.9 0.00 0.00 0.00 85 1008.8
20260509132937 54 330 0.0 0.0 0.00 0.00 0.00 87 1008.8
20260509132435 54 304 0.0 0.0 0.00 0.00 0.00 85 1008.9
20260509131932 53 327 0.0 0.9 0.00 0.00 0.00 86 1008.7
20260509131429 53 288 0.0 0.9 0.00 0.00 0.00 86 1008.8
20260509130925 53 295 0.0 0.9 0.00 0.00 0.00 86 1008.6
20260509130420 52 278 0.0 0.0 0.00 0.00 0.00 86 1008.7
20260509125918 52 339 0.0 0.0 0.00 0.00 0.00 87 1008.6
20260509125415 53 67 0.9 1.7 0.00 0.00 0.00 88 1008.4
20260509124910 53 35 0.0 0.9 0.00 0.00 0.00 86 1008.4
20260509124408 53 291 0.0 0.0 0.00 0.00 0.00 84 1008.7
20260509123905 53 292 0.0 0.9 0.00 0.00 0.00 84 1008.7
20260509123402 52 13 0.0 0.0 0.00 0.00 0.00 84 1008.7
20260509122858 52 87 0.0 0.0 0.00 0.00 0.00 85 1008.7
20260509122355 52 87 0.0 0.0 0.00 0.00 0.00 85 1008.5
20260509121852 52 87 0.0 0.0 0.00 0.00 0.00 86 1008.8
20260509121349 52 87 0.0 0.0 0.00 0.00 0.00 85 1008.8
20260509120847 52 87 0.0 0.0 0.00 0.00 0.00 85 1008.6
20260509120344 51 87 0.0 0.0 0.00 0.00 0.00 85 1008.6
20260509115842 51 87 0.0 0.0 0.00 0.00 0.00 85 1008.8
20260509115339 51 87 0.0 0.0 0.00 0.00 0.00 86 1008.8
20260509114837 51 87 0.0 0.0 0.00 0.00 0.00 86 1008.7
20260509114336 51 64 0.9 0.9 0.00 0.00 0.00 87 1008.6
20260509113835 51 307 0.0 0.9 0.00 0.00 0.00 86 1008.6
20260509113331 51 78 0.0 0.0 0.00 0.00 0.00 86 1008.5
20260509112828 51 19 0.0 0.0 0.00 0.00 0.00 86 1008.5
20260509112325 51 312 0.0 0.0 0.00 0.00 0.00 86 1008.7
20260509111822 51 79 0.0 0.9 0.00 0.00 0.00 85 1008.7
20260509111319 51 328 0.0 0.9 0.00 0.00 0.00 86 1008.5
20260509110817 50 301 0.0 0.9 0.00 0.00 0.00 86 1008.4
20260509110313 50 290 0.0 0.0 0.00 0.00 0.00 86 1008.5
20260509105811 50 37 0.0 0.0 0.00 0.00 0.00 87 1008.4
20260509105309 50 74 0.0 0.0 0.00 0.00 0.00 86 1008.4
20260509104805 50 223 0.0 0.0 0.00 0.00 0.00 86 1008.3
20260509104302 50 231 0.0 0.0 0.00 0.00 0.00 87 1008.4
20260509103800 50 224 0.0 0.9 0.00 0.00 0.00 88 1008.3
20260509103257 49 310 0.9 0.9 0.00 0.00 0.00 89 1008.2
20260509102755 50 89 0.9 1.7 0.00 0.00 0.00 88 1008.3
20260509102252 50 70 1.7 1.7 0.00 0.00 0.00 87 1008.1
20260509101748 50 234 0.0 0.0 0.00 0.00 0.00 87 1008.0
20260509101244 50 234 0.0 0.0 0.00 0.00 0.00 87 1007.9
20260509100742 50 234 0.0 0.0 0.00 0.00 0.00 87 1008.0
20260509100240 50 234 0.0 0.0 0.00 0.00 0.00 86 1007.8
20260509095736 50 234 0.0 0.0 0.00 0.00 0.00 86 1008.0
20260509095233 50 234 0.0 0.0 0.00 0.00 0.00 86 1008.1
20260509094730 50 235 0.0 0.0 0.00 0.00 0.00 86 1008.1
20260509094227 50 235 0.0 0.0 0.00 0.00 0.00 85 1008.1
20260509093725 50 241 0.0 0.9 0.00 0.00 0.00 86 1008.1
20260509093222 50 241 0.0 0.0 0.00 0.00 0.00 84 1008.2
20260509092720 50 266 0.0 0.0 0.00 0.00 0.00 86 1008.1
20260509092218 50 271 0.9 0.9 0.00 0.00 0.00 86 1008.5
20260509091716 50 288 0.0 0.0 0.00 0.00 0.00 86 1008.3
20260509091211 50 328 0.0 0.0 0.00 0.00 0.00 85 1008.4
20260509090709 49 1 0.0 0.0 0.00 0.00 0.00 85 1008.0
20260509090206 49 328 0.0 0.0 0.00 0.00 0.00 86 1008.0
20260509085704 49 339 0.0 0.0 0.00 0.00 0.00 86 1008.2
20260509085200 49 280 0.0 0.9 0.00 0.00 0.00 87 1008.2
20260509084657 49 4 0.0 0.0 0.00 0.00 0.00 86 1008.0
20260509084154 49 288 0.0 0.0 0.00 0.00 0.00 87 1008.1
20260509083652 49 288 0.0 0.0 0.00 0.00 0.00 86 1008.3
20260509083148 49 300 0.0 0.0 0.00 0.00 0.00 87 1008.1
20260509082645 49 8 0.0 0.0 0.00 0.00 0.00 87 1007.8
20260509082142 49 7 0.0 0.0 0.00 0.00 0.00 87 1007.9
20260509081639 49 282 0.0 0.9 0.00 0.00 0.00 87 1007.9
20260509081136 49 41 0.0 0.0 0.00 0.00 0.00 87 1008.0
20260509080634 49 359 0.0 0.0 0.00 0.00 0.00 87 1007.9
20260509080132 49 342 0.0 0.0 0.00 0.00 0.00 87 1008.1
20260509075630 49 49 0.0 0.0 0.00 0.00 0.00 86 1008.0
20260509075128 49 35 0.0 0.0 0.00 0.00 0.00 86 1008.2
20260509074624 49 354 0.0 0.0 0.00 0.00 0.00 86 1008.1
20260509074120 49 36 0.0 0.0 0.00 0.00 0.00 86 1008.0
20260509073617 49 29 0.0 0.0 0.00 0.00 0.00 86 1007.9
20260509073114 49 29 0.0 0.0 0.00 0.00 0.00 86 1008.3
20260509072611 49 29 0.0 0.0 0.00 0.00 0.00 86 1008.2
20260509072107 49 30 0.0 0.0 0.00 0.00 0.00 86 1008.3
20260509071604 49 48 0.0 0.0 0.00 0.00 0.00 85 1008.3
20260509071101 49 48 0.0 0.0 0.00 0.00 0.00 85 1008.1
20260509070559 49 6 0.0 0.0 0.00 0.00 0.00 86 1008.2
20260509070054 49 6 0.0 0.0 0.00 0.00 0.00 86 1008.2
20260509065550 49 6 0.0 0.0 0.00 0.00 0.00 85 1008.1
20260509065046 49 312 0.0 0.0 0.00 0.00 0.00 84 1008.0
20260509064544 49 313 0.0 0.0 0.00 0.00 0.00 83 1008.1
20260509064042 49 285 0.0 0.0 0.00 0.00 0.00 83 1008.0
20260509063537 49 285 0.0 0.0 0.00 0.00 0.00 82 1008.2
20260509063035 49 285 0.0 0.0 0.00 0.00 0.00 82 1008.3
20260509062532 50 285 0.0 0.0 0.00 0.00 0.00 82 1008.2
20260509062030 50 285 0.0 0.0 0.00 0.00 0.00 80 1008.2
20260509061526 50 300 0.0 0.0 0.00 0.00 0.00 81 1008.6
20260509061024 51 311 0.0 0.0 0.00 0.00 0.00 82 1008.3
20260509060521 51 310 0.0 0.0 0.00 0.00 0.00 82 1008.5
20260509060017 52 310 0.0 0.0 0.00 0.00 0.00 82 1008.3
20260509055512 52 310 0.0 0.0 0.00 0.00 0.00 81 1008.5
20260509055009 52 310 0.0 0.0 0.00 0.00 0.00 80 1008.6
20260509054505 52 317 0.0 0.0 0.00 0.00 0.00 80 1008.4
20260509054003 52 334 0.0 0.0 0.00 0.00 0.00 80 1008.4
20260509053501 52 27 0.0 0.0 0.00 0.00 0.00 80 1008.5
20260509052958 52 27 0.0 0.0 0.00 0.00 0.00 80 1008.8
20260509052455 53 27 0.0 0.0 0.00 0.00 0.00 80 1008.8
20260509051953 53 27 0.0 0.0 0.00 0.00 0.00 80 1008.8
20260509051451 53 27 0.0 0.0 0.00 0.00 0.00 79 1008.6
20260509050948 53 27 0.0 0.0 0.00 0.00 0.00 78 1009.1
20260509050444 53 319 0.0 0.0 0.00 0.00 0.00 77 1008.7
20260509045941 53 319 0.0 0.0 0.00 0.00 0.00 77 1008.8
20260509045438 53 319 0.0 0.0 0.00 0.00 0.00 77 1009.0
20260509044935 53 319 0.0 0.0 0.00 0.00 0.00 78 1008.8
20260509044433 53 319 0.0 0.0 0.00 0.00 0.00 79 1008.7
20260509043930 53 320 0.0 0.0 0.00 0.00 0.00 78 1008.7
20260509043426 53 320 0.0 0.0 0.00 0.00 0.00 77 1008.7
20260509042921 53 320 0.0 0.0 0.00 0.00 0.00 76 1009.0
20260509042419 53 319 0.0 0.0 0.00 0.00 0.00 77 1009.1
20260509041914 53 324 0.0 0.0 0.00 0.00 0.00 78 1008.9
20260509041412 54 293 0.9 0.9 0.00 0.00 0.00 79 1009.0
20260509040910 53 349 0.0 0.0 0.00 0.00 0.00 76 1008.9
20260509040408 53 349 0.0 0.0 0.00 0.00 0.00 77 1008.9
20260509035904 54 349 0.0 0.0 0.00 0.00 0.00 78 1009.0
20260509035401 54 350 0.0 0.0 0.00 0.00 0.00 78 1008.8
20260509034857 54 351 0.0 0.0 0.00 0.00 0.00 78 1008.8
20260509034355 54 319 0.0 0.9 0.00 0.00 0.00 78 1009.0
20260509033852 54 320 0.0 0.0 0.00 0.00 0.00 77 1008.8
20260509033349 54 302 0.0 0.9 0.00 0.00 0.00 78 1009.0
20260509032846 54 324 0.0 0.0 0.00 0.00 0.00 73 1008.8
20260509032343 54 328 0.0 0.0 0.00 0.00 0.00 76 1008.9
20260509031841 54 52 0.0 0.0 0.00 0.00 0.00 74 1008.8
20260509031338 55 304 0.0 0.0 0.00 0.00 0.00 72 1008.6
20260509030836 55 282 0.0 0.0 0.00 0.00 0.00 73 1008.9
20260509030333 55 298 0.0 0.0 0.00 0.00 0.00 74 1008.9
20260509025830 55 297 0.0 0.0 0.00 0.00 0.00 73 1008.7
20260509025325 55 62 0.0 0.0 0.00 0.00 0.00 72 1008.9
20260509024821 55 62 0.0 0.0 0.00 0.00 0.00 72 1009.0
20260509024318 55 62 0.0 0.0 0.00 0.00 0.00 72 1009.1
20260509023815 55 281 0.0 0.0 0.00 0.00 0.00 69 1008.9
20260509023312 55 303 0.9 0.9 0.00 0.00 0.00 67 1008.9
20260509022808 55 278 0.0 0.9 0.00 0.00 0.00 71 1008.9
20260509022307 55 1 0.0 0.0 0.00 0.00 0.00 70 1008.8
20260509021802 55 37 0.0 0.0 0.00 0.00 0.00 71 1008.9
20260509021300 55 298 0.0 0.0 0.00 0.00 0.00 71 1008.8
20260509020757 55 297 0.0 0.0 0.00 0.00 0.00 70 1009.0
20260509020255 55 302 0.0 0.0 0.00 0.00 0.00 69 1009.0
20260509015752 55 301 0.0 0.0 0.00 0.00 0.00 70 1008.8
20260509015251 56 304 0.0 0.0 0.00 0.00 0.00 71 1008.9
20260509014746 55 293 0.0 0.9 0.00 0.00 0.00 69 1008.8
20260509014244 56 45 0.0 0.9 0.00 0.00 0.00 70 1008.9
20260509013740 56 296 0.0 0.0 0.00 0.00 0.00 68 1008.7
20260509013236 56 304 0.0 0.9 0.00 0.00 0.00 67 1008.6
20260509012733 56 324 0.0 0.0 0.00 0.00 0.00 67 1008.7
20260509012229 56 50 0.0 0.0 0.00 0.00 0.00 68 1008.7
20260509011727 56 0 0.0 0.0 0.00 0.00 0.00 66 1008.7
20260509011225 56 263 0.0 0.9 0.00 0.00 0.00 65 1008.7
20260509010722 56 260 0.0 0.9 0.00 0.00 0.00 64 1008.4
20260509010218 56 315 0.0 0.0 0.00 0.00 0.00 66 1008.5
20260509005716 56 341 0.0 0.0 0.00 0.00 0.00 65 1008.5
20260509005214 56 295 0.0 0.0 0.00 0.00 0.00 67 1008.4
20260509004713 56 310 0.0 0.9 0.00 0.00 0.00 66 1008.3
20260509004212 56 307 0.0 0.0 0.00 0.00 0.00 67 1008.5
20260509003709 57 289 0.0 0.0 0.00 0.00 0.00 66 1008.4
20260509003207 57 248 0.0 0.9 0.00 0.00 0.00 64 1008.5
20260509002704 58 268 0.9 0.9 0.00 0.00 0.00 62 1008.5
20260509002201 57 260 0.0 0.9 0.00 0.00 0.00 61 1008.6
20260509001659 58 293 0.9 0.9 0.00 0.00 0.00 62 1008.4
20260509001154 59 300 0.0 0.9 0.00 0.00 0.00 58 1008.5
20260509000653 59 302 0.0 0.9 0.00 0.00 0.00 56 1008.3
20260509000149 60 255 0.9 0.9 0.00 0.00 0.00 56 1008.3
20260508235647 60 251 1.7 1.7 0.00 0.00 0.00 55 1008.1
20260508235143 61 241 0.9 0.9 0.00 0.00 0.00 54 1008.3
20260508234640 62 295 0.9 0.9 0.00 0.00 0.00 53 1008.3
20260508234137 63 272 0.0 0.9 0.00 0.00 0.00 51 1008.5
20260508233636 64 300 0.9 0.9 0.00 0.00 0.00 48 1008.2
20260508233133 66 293 0.0 1.7 0.00 0.00 0.00 46 1008.3
20260508232631 67 131 0.0 2.6 0.00 0.00 0.00 37 1008.2
20260508232128 68 315 0.9 1.7 0.00 0.00 0.00 37 1008.0
20260508231625 68 305 1.7 6.1 0.00 0.00 0.00 35 1008.0
20260508231122 69 262 0.0 0.9 0.00 0.00 0.00 35 1008.0
20260508230618 69 336 1.7 5.2 0.00 0.00 0.00 34 1008.1
20260508230115 70 246 3.5 3.5 0.00 0.00 0.00 36 1008.3
20260508225613 70 315 0.0 2.6 0.00 0.00 0.00 35 1008.0
20260508225108 70 321 0.9 1.7 0.00 0.00 0.00 34 1008.2
20260508224607 70 61 0.9 2.6 0.00 0.00 0.00 34 1008.1
20260508224104 71 79 1.7 3.5 0.00 0.00 0.00 32 1008.2
20260508223602 71 322 1.7 6.1 0.00 0.00 0.00 33 1008.3
20260508223059 71 198 2.6 6.1 0.00 0.00 0.00 33 1008.1
20260508222556 71 262 2.6 3.5 0.00 0.00 0.00 32 1008.1
20260508222053 71 61 0.9 2.6 0.00 0.00 0.00 34 1008.1
20260508221549 71 73 1.7 2.6 0.00 0.00 0.00 32 1008.1
20260508221044 71 310 0.9 5.2 0.00 0.00 0.00 33 1008.2
20260508220542 71 25 2.6 3.5 0.00 0.00 0.00 32 1008.2
20260508220038 71 6 1.7 5.2 0.00 0.00 0.00 34 1008.4
20260508215535 71 290 0.0 2.6 0.00 0.00 0.00 32 1008.2
20260508215032 71 150 1.7 3.5 0.00 0.00 0.00 31 1008.4
20260508214529 71 246 0.9 2.6 0.00 0.00 0.00 35 1008.5
20260508214025 72 359 0.9 3.5 0.00 0.00 0.00 34 1008.4
20260508213523 71 318 1.7 7.0 0.00 0.00 0.00 35 1008.8
20260508213018 70 56 3.5 6.1 0.00 0.00 0.00 33 1008.5
20260508212515 70 318 2.6 7.0 0.00 0.00 0.00 35 1008.8
20260508212012 69 293 2.6 5.2 0.00 0.00 0.00 35 1008.7
20260508211507 70 16 1.7 8.7 0.00 0.00 0.00 34 1008.4
20260508211004 70 260 1.7 7.0 0.00 0.00 0.00 34 1008.8
20260508210500 72 101 1.7 5.2 0.00 0.00 0.00 33 1008.8
20260508205957 70 71 6.1 8.7 0.00 0.00 0.00 34 1008.7
20260508205454 71 76 3.5 5.2 0.00 0.00 0.00 35 1008.7
20260508204950 71 71 1.7 5.2 0.00 0.00 0.00 35 1008.7
20260508204448 71 111 1.7 7.0 0.00 0.00 0.00 32 1008.9
20260508203943 69 305 0.9 3.5 0.00 0.00 0.00 34 1008.9
20260508203440 68 60 0.9 1.7 0.00 0.00 0.00 37 1009.0
20260508202935 69 171 0.9 3.5 0.00 0.00 0.00 35 1009.0
20260508202433 70 72 3.5 7.0 0.00 0.00 0.00 33 1009.0
20260508201930 71 354 1.7 7.0 0.00 0.00 0.00 32 1009.1